Total_Precipitation_Accumulation
0.00 0.00 0.00 0.00 0.00 0.01 0.02 0.02 0.03 0.03 0.03 0.05 0.07 0.09 0.13 0.18 0.21 0.25 0.25 0.27 0.28 0.27 0.28 0.30 0.32 0.36 0.42 0.41 0.40 0.39 0.36 0.38 0.35 0.11 0.05 0.07 0.13 0.18 0.19 0.18 0.16 0.15 0.17
0.00 0.00 0.00 0.00 0.01 0.02 0.04 0.06 0.06 0.06 0.07 0.09 0.12 0.15 0.20 0.23 0.26 0.32 0.36 0.37 0.41 0.41 0.37 0.36 0.38 0.40 0.44 0.47 0.49 0.47 0.41 0.36 0.37 0.22 0.08 0.07 0.12 0.19 0.23 0.25 0.23 0.19 0.16
0.00 0.00 0.00 0.00 0.01 0.03 0.06 0.10 0.15 0.19 0.21 0.23 0.26 0.31 0.37 0.40 0.42 0.45 0.49 0.57 0.63 0.61 0.59 0.58 0.53 0.51 0.53 0.51 0.52 0.52 0.46 0.38 0.33 0.26 0.15 0.11 0.15 0.21 0.27 0.30 0.31 0.28 0.23
0.00 0.00 0.00 0.01 0.04 0.06 0.09 0.15 0.24 0.34 0.41 0.46 0.50 0.53 0.58 0.66 0.76 0.81 0.80 0.80 0.79 0.77 0.75 0.75 0.74 0.73 0.72 0.68 0.65 0.58 0.52 0.46 0.37 0.31 0.23 0.19 0.21 0.24 0.33 0.36 0.38 0.36 0.33
0.01 0.01 0.02 0.05 0.10 0.17 0.20 0.23 0.31 0.39 0.47 0.51 0.52 0.53 0.58 0.79 1.14 1.25 1.09 0.88 0.74 0.69 0.68 0.70 0.77 0.88 0.91 0.91 0.92 0.76 0.59 0.55 0.49 0.43 0.34 0.28 0.26 0.30 0.37 0.42 0.50 0.47 0.44
0.02 0.03 0.06 0.11 0.18 0.25 0.29 0.32 0.39 0.44 0.47 0.46 0.46 0.46 0.48 0.66 1.05 1.19 0.90 0.62 0.49 0.51 0.57 0.56 0.58 0.69 0.75 0.77 0.85 0.82 0.77 0.75 0.72 0.62 0.52 0.45 0.39 0.38 0.42 0.51 0.58 0.64 0.60
0.04 0.06 0.10 0.13 0.17 0.20 0.23 0.27 0.32 0.30 0.26 0.28 0.33 0.32 0.32 0.43 0.78 0.91 0.62 0.32 0.23 0.28 0.37 0.40 0.41 0.49 0.59 0.61 0.60 0.55 0.59 0.68 0.81 0.83 0.77 0.68 0.57 0.50 0.51 0.52 0.59 0.66 0.68
0.04 0.07 0.10 0.12 0.16 0.14 0.13 0.16 0.19 0.16 0.15 0.18 0.19 0.15 0.13 0.20 0.53 0.72 0.49 0.18 0.12 0.18 0.26 0.31 0.31 0.35 0.48 0.60 0.58 0.47 0.45 0.57 0.77 0.86 0.93 0.86 0.74 0.67 0.68 0.71 0.73 0.72 0.79
0.04 0.05 0.07 0.10 0.14 0.11 0.09 0.10 0.12 0.12 0.11 0.10 0.09 0.06 0.04 0.08 0.36 0.67 0.51 0.16 0.11 0.13 0.19 0.27 0.25 0.22 0.37 0.42 0.37 0.37 0.36 0.44 0.54 0.68 0.71 0.69 0.67 0.71 0.80 0.84 0.88 0.92 1.04
0.02 0.03 0.03 0.04 0.06 0.05 0.03 0.02 0.03 0.04 0.05 0.04 0.02 0.01 0.01 0.02 0.19 0.59 0.63 0.23 0.14 0.10 0.11 0.18 0.26 0.24 0.29 0.27 0.22 0.26 0.34 0.39 0.34 0.34 0.36 0.38 0.43 0.51 0.67 0.84 0.97 1.06 1.14
0.00 0.00 0.00 0.00 0.01 0.01 0.01 0.01 0.01 0.01 0.01 0.01 0.01 0.00 0.00 0.01 0.05 0.36 0.71 0.46 0.23 0.11 0.10 0.16 0.20 0.21 0.19 0.16 0.14 0.21 0.37 0.29 0.21 0.24 0.26 0.29 0.36 0.45 0.59 0.74 0.91 1.05 1.13
0.00 0.00 0.00 0.00 0.00 0.01 0.01 0.01 0.01 0.01 0.01 0.01 0.01 0.01 0.01 0.01 0.04 0.21 0.45 0.52 0.33 0.13 0.12 0.12 0.13 0.12 0.08 0.06 0.06 0.12 0.11 0.08 0.10 0.14 0.18 0.23 0.33 0.45 0.57 0.68 0.80 0.96 1.11
0.00 0.00 0.00 0.01 0.01 0.01 0.01 0.01 0.01 0.01 0.03 0.05 0.04 0.03 0.02 0.02 0.06 0.18 0.20 0.21 0.24 0.17 0.23 0.21 0.08 0.02 0.01 0.01 0.02 0.03 0.03 0.04 0.07 0.11 0.17 0.24 0.33 0.43 0.47 0.53 0.60 0.74 0.88
0.00 0.00 0.01 0.01 0.01 0.01 0.02 0.02 0.02 0.05 0.15 0.18 0.11 0.07 0.04 0.05 0.15 0.31 0.21 0.10 0.10 0.11 0.13 0.13 0.03 0.00 0.00 0.00 0.00 0.01 0.01 0.04 0.07 0.11 0.16 0.19 0.22 0.28 0.35 0.45 0.53 0.63 0.75
0.00 0.01 0.01 0.01 0.02 0.02 0.02 0.02 0.03 0.06 0.23 0.31 0.20 0.18 0.16 0.20 0.33 0.40 0.28 0.23 0.21 0.17 0.08 0.03 0.01 0.00 0.00 0.00 0.00 0.00 0.01 0.02 0.03 0.05 0.09 0.12 0.16 0.22 0.30 0.39 0.49 0.57 0.70
0.01 0.01 0.02 0.03 0.03 0.02 0.02 0.02 0.02 0.04 0.09 0.10 0.11 0.17 0.18 0.28 0.30 0.21 0.19 0.20 0.19 0.14 0.03 0.01 0.01 0.01 0.01 0.01 0.01 0.01 0.01 0.01 0.02 0.04 0.06 0.09 0.14 0.20 0.25 0.31 0.40 0.50 0.63
0.01 0.02 0.04 0.03 0.03 0.03 0.03 0.04 0.03 0.01 0.02 0.02 0.03 0.07 0.14 0.21 0.17 0.13 0.14 0.11 0.09 0.04 0.01 0.01 0.01 0.01 0.01 0.01 0.02 0.02 0.01 0.01 0.01 0.02 0.04 0.06 0.09 0.14 0.19 0.25 0.32 0.41 0.53
0.01 0.02 0.04 0.04 0.05 0.05 0.05 0.05 0.05 0.04 0.02 0.01 0.00 0.01 0.06 0.11 0.09 0.07 0.09 0.06 0.02 0.01 0.01 0.01 0.02 0.02 0.02 0.02 0.03 0.02 0.02 0.01 0.01 0.02 0.02 0.03 0.06 0.10 0.14 0.19 0.26 0.35 0.44
0.01 0.03 0.05 0.05 0.05 0.05 0.05 0.05 0.04 0.04 0.03 0.02 0.00 0.00 0.01 0.02 0.02 0.02 0.02 0.01 0.01 0.01 0.01 0.02 0.02 0.02 0.03 0.03 0.03 0.03 0.02 0.02 0.01 0.01 0.01 0.02 0.03 0.06 0.10 0.14 0.19 0.26 0.33
0.01 0.02 0.04 0.04 0.04 0.05 0.05 0.05 0.04 0.04 0.03 0.02 0.02 0.02 0.05 0.04 0.01 0.01 0.01 0.01 0.02 0.02 0.02 0.02 0.02 0.03 0.03 0.03 0.03 0.03 0.03 0.02 0.02 0.01 0.01 0.01 0.02 0.03 0.07 0.10 0.13 0.18 0.26
0.02 0.02 0.03 0.04 0.04 0.05 0.06 0.06 0.05 0.05 0.05 0.03 0.02 0.03 0.13 0.09 0.02 0.01 0.01 0.02 0.04 0.04 0.04 0.04 0.03 0.03 0.04 0.04 0.04 0.04 0.03 0.03 0.02 0.02 0.01 0.01 0.01 0.02 0.03 0.06 0.09 0.13 0.19
0.03 0.03 0.04 0.05 0.06 0.06 0.07 0.06 0.06 0.05 0.04 0.04 0.02 0.01 0.04 0.02 0.02 0.02 0.02 0.03 0.04 0.05 0.06 0.06 0.05 0.05 0.07 0.08 0.08 0.06 0.05 0.04 0.02 0.02 0.01 0.01 0.01 0.01 0.02 0.03 0.06 0.09 0.13
0.06 0.06 0.05 0.04 0.04 0.05 0.04 0.03 0.04 0.05 0.04 0.03 0.03 0.02 0.02 0.02 0.03 0.03 0.04 0.04 0.05 0.05 0.06 0.07 0.07 0.06 0.07 0.08 0.08 0.09 0.08 0.06 0.04 0.02 0.02 0.01 0.01 0.01 0.01 0.02 0.04 0.07 0.11
0.05 0.04 0.03 0.04 0.04 0.04 0.04 0.04 0.05 0.05 0.05 0.05 0.04 0.04 0.03 0.03 0.03 0.03 0.04 0.04 0.05 0.05 0.07 0.09 0.09 0.09 0.09 0.11 0.10 0.08 0.08 0.07 0.05 0.04 0.02 0.02 0.02 0.02 0.02 0.03 0.04 0.05 0.09
0.02 0.02 0.03 0.05 0.05 0.06 0.06 0.05 0.05 0.06 0.07 0.06 0.06 0.05 0.05 0.04 0.04 0.04 0.04 0.05 0.06 0.06 0.06 0.08 0.10 0.11 0.11 0.12 0.12 0.11 0.10 0.09 0.10 0.13 0.18 0.19 0.16 0.11 0.08 0.07 0.06 0.05 0.07
0.02 0.03 0.05 0.06 0.07 0.07 0.09 0.09 0.08 0.08 0.09 0.08 0.07 0.07 0.07 0.06 0.06 0.05 0.06 0.08 0.10 0.10 0.09 0.09 0.10 0.13 0.13 0.12 0.12 0.13 0.13 0.15 0.23 0.33 0.40 0.36 0.24 0.14 0.09 0.08 0.06 0.06 0.08